,,Stat6,,Stat2,,Stat8,,Stat9,,Stat10,,Wind1,,Wind1,
time,status,PA1M_AVG,status,PR1M_SUM,status,RH1M_AVG,status,SR1M_AVG,status,TA1M_AVG,status,W1dAve1m,status,W1sAve1m,
2003-12-25, 00:00:00,VALID,919.3,VALID,0,VALID,98.0191,VALID,0.0169808,VALID,19.34,VALID,58,VALID,0.3508,
2003-12-25, 00:01:00,VALID,919.288,VALID,0,VALID,97.9873,VALID,0,VALID,19.2888,VALID,58,VALID,0.0070503,
2003-12-25, 00:02:00,VALID,919.268,VALID,0,VALID,97.8309,VALID,0,VALID,19.2168,VALID,58,VALID,0,
2003-12-25, 00:03:00,VALID,919.253,VALID,0,VALID,98.1361,VALID,0.0169808,VALID,19.2238,VALID,58,VALID,0,
2003-12-25, 00:04:00,VALID,919.244,VALID,0,VALID,98.2264,VALID,0.0169808,VALID,19.2238,VALID,58,VALID,0,
2003-12-25, 00:05:00,VALID,919.245,VALID,0,VALID,98.2887,VALID,0,VALID,19.2106,VALID,58,VALID,0,
2003-12-25, 00:06:00,VALID,919.258,VALID,0,VALID,98.4273,VALID,0,VALID,19.2305,VALID,58,VALID,0,
2003-12-25, 00:07:00,VALID,919.285,VALID,0,VALID,98.4184,VALID,0,VALID,19.224,VALID,58,VALID,0,
2003-12-25, 00:08:00,VALID,919.282,VALID,0,VALID,98.6791,VALID,0,VALID,19.2332,VALID,58,VALID,0,
2003-12-25, 00:09:00,VALID,919.31,VALID,0,VALID,98.8863,VALID,-0.0169808,VALID,19.269,VALID,89,VALID,0.298971,
2003-12-25, 00:10:00,VALID,919.325,VALID,0,VALID,98.5163,VALID,0,VALID,19.2593,VALID,132,VALID,0.582317,
2003-12-25, 00:11:00,VALID,919.319,VALID,0,VALID,97.9123,VALID,-0.0169808,VALID,19.1465,VALID,147,VALID,0.586124,
2003-12-25, 00:12:00,VALID,919.309,VALID,0,VALID,97.6847,VALID,0,VALID,19.0464,VALID,147,VALID,0.321429,
2003-12-25, 00:13:00,VALID,919.296,VALID,0,VALID,97.7699,VALID,0,VALID,18.9652,VALID,147,VALID,0.492733,
2003-12-25, 00:14:00,VALID,919.276,VALID,0,VALID,98.1768,VALID,0,VALID,18.9493,VALID,137,VALID,0.490039,
2003-12-25, 00:15:00,VALID,919.251,VALID,0,VALID,98.5265,VALID,0,VALID,18.9394,VALID,138,VALID,0.922991,
2003-12-25, 00:16:00,VALID,919.236,VALID,0,VALID,98.9728,VALID,0,VALID,18.9664,VALID,134,VALID,1.05618,
2003-12-25, 00:17:00,VALID,919.234,VALID,0,VALID,99.3314,VALID,-0.0169808,VALID,18.9689,VALID,134,VALID,0.952148,
2003-12-25, 00:18:00,VALID,919.226,VALID,0,VALID,99.545,VALID,0,VALID,18.9724,VALID,139,VALID,0.803819,
2003-12-25, 00:19:00,VALID,919.214,VALID,0,VALID,99.7408,VALID,0.0169808,VALID,18.9788,VALID,140,VALID,0.604048,
2003-12-25, 00:20:00,VALID,919.212,VALID,0,VALID,99.8782,VALID,0.0169808,VALID,18.9851,VALID,139,VALID,0.428416,
2003-12-25, 00:21:00,VALID,919.205,VALID,0,VALID,99.8858,VALID,0,VALID,18.9915,VALID,131,VALID,0.601926,
2003-12-25, 00:22:00,VALID,919.19,VALID,0,VALID,99.6493,VALID,0.0169808,VALID,18.9396,VALID,100,VALID,0.323765,
2003-12-25, 00:23:00,VALID,919.188,VALID,0,VALID,99.1991,VALID,0.0169808,VALID,18.7623,VALID,102,VALID,0.125762,
2003-12-25, 00:24:00,VALID,919.172,VALID,0,VALID,99.03,VALID,0,VALID,18.6041,VALID,102,VALID,0.233232,
2003-12-25, 00:25:00,VALID,919.167,VALID,0,VALID,99.1597,VALID,0,VALID,18.5072,VALID,102,VALID,0.124256,
2003-12-25, 00:26:00,VALID,919.154,VALID,0,VALID,99.5755,VALID,0,VALID,18.5077,VALID,101,VALID,0.349787,
2003-12-25, 00:27:00,VALID,919.156,VALID,0,VALID,99.9674,VALID,0,VALID,18.5589,VALID,104,VALID,0.485305,
2003-12-25, 00:28:00,VALID,919.145,VALID,0,VALID,100,VALID,0.0339617,VALID,18.6458,VALID,109,VALID,0.515625,
2003-12-25, 00:29:00,VALID,919.138,VALID,0,VALID,100,VALID,0,VALID,18.7136,VALID,77,VALID,0.521621,
2003-12-25, 00:30:00,VALID,919.131,VALID,0,VALID,100,VALID,0,VALID,18.7205,VALID,77,VALID,0.646205,
2003-12-25, 00:31:00,VALID,919.123,VALID,0,VALID,100,VALID,0,VALID,18.7459,VALID,83,VALID,0.663662,
2003-12-25, 00:32:00,VALID,919.112,VALID,0,VALID,100,VALID,0,VALID,18.7754,VALID,64,VALID,0.76508,
2003-12-25, 00:33:00,VALID,919.106,VALID,0,VALID,100,VALID,-0.0339617,VALID,18.7983,VALID,64,VALID,0.787326,
2003-12-25, 00:34:00,VALID,919.106,VALID,0,VALID,100,VALID,0,VALID,18.8213,VALID,59,VALID,0.739955,
2003-12-25, 00:35:00,VALID,919.119,VALID,0,VALID,100,VALID,0.0169808,VALID,18.8301,VALID,75,VALID,0.625363,
2003-12-25, 00:36:00,VALID,919.111,VALID,0,VALID,100,VALID,0.0169808,VALID,18.8755,VALID,84,VALID,0.709028,
2003-12-25, 00:37:00,VALID,919.115,VALID,0,VALID,100,VALID,0,VALID,18.9369,VALID,94,VALID,0.85556,
2003-12-25, 00:38:00,VALID,919.1,VALID,0,VALID,100,VALID,0,VALID,19.0111,VALID,99,VALID,0.726753,
2003-12-25, 00:39:00,VALID,919.096,VALID,0,VALID,100,VALID,0,VALID,19.0462,VALID,117,VALID,0.846657,
2003-12-25, 00:40:00,VALID,919.084,VALID,0,VALID,100,VALID,0,VALID,19.0663,VALID,110,VALID,0.696766,
2003-12-25, 00:41:00,VALID,919.076,VALID,0,VALID,100,VALID,0.0339617,VALID,19.0529,VALID,98,VALID,0.428052,
2003-12-25, 00:42:00,VALID,919.055,VALID,0,VALID,100,VALID,0.0169808,VALID,19.0434,VALID,103,VALID,0.673177,
2003-12-25, 00:43:00,VALID,919.055,VALID,0,VALID,100,VALID,0,VALID,19.0663,VALID,104,VALID,0.581759,
2003-12-25, 00:44:00,VALID,919.043,VALID,0,VALID,100,VALID,0.0169808,VALID,19.0596,VALID,110,VALID,0.638579,
2003-12-25, 00:45:00,VALID,919.026,VALID,0,VALID,100,VALID,0.0169808,VALID,19.063,VALID,117,VALID,0.520389,
2003-12-25, 00:46:00,VALID,919.031,VALID,0,VALID,100,VALID,0.0169808,VALID,19.0563,VALID,117,VALID,0.383557,
2003-12-25, 00:47:00,VALID,919.026,VALID,0,VALID,100,VALID,0,VALID,19.063,VALID,117,VALID,0.495916,
2003-12-25, 00:48:00,VALID,919.025,VALID,0,VALID,100,VALID,0.0169808,VALID,19.0824,VALID,117,VALID,0.47923,
2003-12-25, 00:49:00,VALID,919.021,VALID,0,VALID,100,VALID,-0.0169808,VALID,19.1082,VALID,118,VALID,0.495916,
2003-12-25, 00:50:00,VALID,919.03,VALID,0,VALID,100,VALID,0,VALID,19.1306,VALID,118,VALID,0.532986,
2003-12-25, 00:51:00,VALID,919.021,VALID,0,VALID,100,VALID,0,VALID,19.1763,VALID,122,VALID,0.487749,
2003-12-25, 00:52:00,VALID,919.003,VALID,0,VALID,100,VALID,0,VALID,19.1659,VALID,122,VALID,0.190104,
2003-12-25, 00:53:00,VALID,918.985,VALID,0,VALID,100,VALID,0,VALID,19.1567,VALID,122,VALID,0.369048,
2003-12-25, 00:54:00,VALID,918.956,VALID,0,VALID,100,VALID,0,VALID,19.1435,VALID,122,VALID,0.625762,
2003-12-25, 00:55:00,VALID,918.954,VALID,0,VALID,100,VALID,0,VALID,19.1698,VALID,122,VALID,0.768999,
2003-12-25, 00:56:00,VALID,918.938,VALID,0,VALID,100,VALID,-0.0169808,VALID,19.2014,VALID,109,VALID,0.736421,
2003-12-25, 00:57:00,VALID,918.943,VALID,0,VALID,100,VALID,0,VALID,19.2275,VALID,106,VALID,0.521701,
2003-12-25, 00:58:00,VALID,918.93,VALID,0,VALID,100,VALID,0,VALID,19.2568,VALID,106,VALID,0.331676,
2003-12-25, 00:59:00,VALID,918.923,VALID,0,VALID,100,VALID,0,VALID,19.2531,VALID,106,VALID,0.338356,
2003-12-25, 01:00:00,VALID,918.922,VALID,0,VALID,100,VALID,0,VALID,19.2434,VALID,106,VALID,0.327508,
2003-12-25, 01:01:00,VALID,918.924,VALID,0,VALID,100,VALID,0,VALID,19.263,VALID,106,VALID,0.482422,
2003-12-25, 01:02:00,VALID,918.926,VALID,0,VALID,100,VALID,0,VALID,19.2821,VALID,109,VALID,0.66353,
2003-12-25, 01:03:00,VALID,918.921,VALID,0,VALID,100,VALID,0,VALID,19.3045,VALID,120,VALID,0.70258,
2003-12-25, 01:04:00,VALID,918.912,VALID,0,VALID,100,VALID,0.0169808,VALID,19.3341,VALID,134,VALID,1.0119,
2003-12-25, 01:05:00,VALID,918.901,VALID,0,VALID,100,VALID,0,VALID,19.3435,VALID,133,VALID,0.668713,
2003-12-25, 01:06:00,VALID,918.879,VALID,0,VALID,100,VALID,0,VALID,19.347,VALID,125,VALID,1.16499,
2003-12-25, 01:07:00,VALID,918.853,VALID,0,VALID,100,VALID,-0.0169808,VALID,19.3234,VALID,120,VALID,1.30808,
2003-12-25, 01:08:00,VALID,918.823,VALID,0,VALID,100,VALID,0,VALID,19.3236,VALID,117,VALID,1.02598,
2003-12-25, 01:09:00,VALID,918.812,VALID,0,VALID,100,VALID,0.0169808,VALID,19.3306,VALID,51,VALID,0.434261,
2003-12-25, 01:10:00,VALID,918.809,VALID,0,VALID,100,VALID,0,VALID,19.3274,VALID,114,VALID,0.221799,
2003-12-25, 01:11:00,VALID,918.819,VALID,0,VALID,100,VALID,0.0509425,VALID,19.3236,VALID,120,VALID,0.187145,
2003-12-25, 01:12:00,VALID,918.812,VALID,0,VALID,100,VALID,-0.0169808,VALID,19.3564,VALID,120,VALID,0.0417302,
2003-12-25, 01:13:00,VALID,918.812,VALID,0,VALID,100,VALID,0,VALID,19.3691,VALID,120,VALID,0.182812,
2003-12-25, 01:14:00,VALID,918.797,VALID,0,VALID,100,VALID,0,VALID,19.379,VALID,120,VALID,0.00090843,
2003-12-25, 01:15:00,VALID,918.802,VALID,0,VALID,100,VALID,0,VALID,19.3758,VALID,120,VALID,0.000173611,
2003-12-25, 01:16:00,VALID,918.794,VALID,0,VALID,100,VALID,0.0339617,VALID,19.3691,VALID,120,VALID,0,
2003-12-25, 01:17:00,VALID,918.79,VALID,0,VALID,100,VALID,0,VALID,19.3661,VALID,120,VALID,0.143102,
2003-12-25, 01:18:00,VALID,918.762,VALID,0,VALID,100,VALID,0,VALID,19.3691,VALID,114,VALID,0.230741,
2003-12-25, 01:19:00,VALID,918.741,VALID,0,VALID,100,VALID,0.0169808,VALID,19.3559,VALID,90,VALID,0.789971,
2003-12-25, 01:20:00,VALID,918.718,VALID,0,VALID,100,VALID,0,VALID,19.3594,VALID,97,VALID,1.00977,
2003-12-25, 01:21:00,VALID,918.701,VALID,0,VALID,100,VALID,0.0339617,VALID,19.3562,VALID,85,VALID,0.592188,
2003-12-25, 01:22:00,VALID,918.677,VALID,0,VALID,100,VALID,0,VALID,19.3659,VALID,73,VALID,0.530134,
2003-12-25, 01:23:00,VALID,918.674,VALID,0,VALID,100,VALID,0.0509425,VALID,19.3559,VALID,89,VALID,0.314098,
2003-12-25, 01:24:00,VALID,918.663,VALID,0,VALID,100,VALID,0,VALID,19.3495,VALID,122,VALID,1.16502,
2003-12-25, 01:25:00,VALID,918.652,VALID,0,VALID,100,VALID,0,VALID,19.3594,VALID,136,VALID,0.575218,
2003-12-25, 01:26:00,VALID,918.643,VALID,0,VALID,100,VALID,0.0339617,VALID,19.3594,VALID,124,VALID,0.98522,
2003-12-25, 01:27:00,VALID,918.636,VALID,0,VALID,100,VALID,0,VALID,19.346,VALID,110,VALID,0.917468,
2003-12-25, 01:28:00,VALID,918.609,VALID,0,VALID,100,VALID,0,VALID,19.3368,VALID,126,VALID,1.04451,
2003-12-25, 01:29:00,VALID,918.593,VALID,0,VALID,100,VALID,0,VALID,19.3301,VALID,98,VALID,0.571039,
2003-12-25, 01:30:00,VALID,918.583,VALID,0,VALID,100,VALID,0.0169808,VALID,19.3177,VALID,102,VALID,0.725446,
2003-12-25, 01:31:00,VALID,918.58,VALID,0,VALID,100,VALID,0,VALID,19.3209,VALID,112,VALID,0.375178,
2003-12-25, 01:32:00,VALID,918.574,VALID,0,VALID,100,VALID,0.0169808,VALID,19.3202,VALID,111,VALID,0.216146,
2003-12-25, 01:33:00,VALID,918.59,VALID,0,VALID,100,VALID,0,VALID,19.3333,VALID,121,VALID,0.407617,
2003-12-25, 01:34:00,VALID,918.581,VALID,0,VALID,100,VALID,0,VALID,19.3172,VALID,121,VALID,0.301599,
2003-12-25, 01:35:00,VALID,918.587,VALID,0,VALID,100,VALID,0.0169808,VALID,19.3437,VALID,123,VALID,0.0762153,
2003-12-25, 01:36:00,VALID,918.581,VALID,0,VALID,100,VALID,0,VALID,19.3527,VALID,123,VALID,0.130394,
2003-12-25, 01:37:00,VALID,918.563,VALID,0,VALID,100,VALID,0.0339617,VALID,19.3559,VALID,123,VALID,0.440044,
2003-12-25, 01:38:00,VALID,918.54,VALID,0,VALID,100,VALID,0,VALID,19.3162,VALID,123,VALID,0.212798,
2003-12-25, 01:39:00,VALID,918.53,VALID,0,VALID,100,VALID,0,VALID,19.3368,VALID,113,VALID,0.249023,
2003-12-25, 01:40:00,VALID,918.514,VALID,0,VALID,100,VALID,0.0169808,VALID,19.3264,VALID,71,VALID,0.597098,
2003-12-25, 01:41:00,VALID,918.505,VALID,0,VALID,100,VALID,0,VALID,19.3274,VALID,61,VALID,0.645952,
2003-12-25, 01:42:00,VALID,918.488,VALID,0,VALID,100,VALID,0,VALID,19.311,VALID,58,VALID,0.558685,
2003-12-25, 01:43:00,VALID,918.477,VALID,0,VALID,100,VALID,0,VALID,19.3107,VALID,76,VALID,0.614139,
2003-12-25, 01:44:00,VALID,918.474,VALID,0,VALID,100,VALID,0.0169808,VALID,19.2946,VALID,104,VALID,0.562153,
2003-12-25, 01:45:00,VALID,918.476,VALID,0,VALID,100,VALID,0.0509425,VALID,19.2812,VALID,134,VALID,0.407465,
2003-12-25, 01:46:00,VALID,918.485,VALID,0,VALID,100,VALID,0.0169808,VALID,19.2787,VALID,140,VALID,0.580966,
2003-12-25, 01:47:00,VALID,918.476,VALID,0,VALID,100,VALID,0,VALID,19.2886,VALID,137,VALID,0.352706,
2003-12-25, 01:48:00,VALID,918.458,VALID,0,VALID,100,VALID,0,VALID,19.2591,VALID,111,VALID,0.642535,
2003-12-25, 01:49:00,VALID,918.45,VALID,0,VALID,100,VALID,0,VALID,19.23,VALID,110,VALID,0.785904,
2003-12-25, 01:50:00,VALID,918.425,VALID,0,VALID,100,VALID,0.0169808,VALID,19.2173,VALID,100,VALID,0.701882,
2003-12-25, 01:51:00,VALID,918.41,VALID,0,VALID,100,VALID,0,VALID,19.2007,VALID,92,VALID,0.0905107,
2003-12-25, 01:52:00,VALID,918.379,VALID,0,VALID,100,VALID,-0.0169808,VALID,19.1977,VALID,75,VALID,0.456845,
2003-12-25, 01:53:00,VALID,918.341,VALID,0,VALID,100,VALID,-0.0509425,VALID,19.1994,VALID,85,VALID,0.230015,
2003-12-25, 01:54:00,VALID,918.294,VALID,0,VALID,100,VALID,-0.0849042,VALID,19.2026,VALID,85,VALID,0.345313,
2003-12-25, 01:55:00,VALID,918.276,VALID,0,VALID,100,VALID,-0.0849042,VALID,19.2029,VALID,83,VALID,0.534339,
2003-12-25, 01:56:00,VALID,918.255,VALID,0,VALID,100,VALID,-0.0849042,VALID,19.1895,VALID,72,VALID,0.823509,
2003-12-25, 01:57:00,VALID,918.24,VALID,0,VALID,100,VALID,-0.0679233,VALID,19.1867,VALID,71,VALID,0.507622,
2003-12-25, 01:58:00,VALID,918.233,VALID,0,VALID,100,VALID,-0.101885,VALID,19.1803,VALID,71,VALID,0.415698,
2003-12-25, 01:59:00,VALID,918.221,VALID,0,VALID,100,VALID,-0.0849042,VALID,19.1798,VALID,67,VALID,0.799479,
2003-12-25, 02:00:00,VALID,918.217,VALID,0,VALID,100,VALID,-0.0849042,VALID,19.1544,VALID,52,VALID,0.634337,
2003-12-25, 02:01:00,VALID,918.228,VALID,0,VALID,100,VALID,-0.0679233,VALID,19.1348,VALID,51,VALID,0.625586,
2003-12-25, 02:02:00,VALID,918.225,VALID,0,VALID,100,VALID,-0.101885,VALID,19.1288,VALID,59,VALID,0.642531,
2003-12-25, 02:03:00,VALID,918.244,VALID,0,VALID,100,VALID,-0.101885,VALID,19.1092,VALID,66,VALID,0.555414,
2003-12-25, 02:04:00,VALID,918.259,VALID,0,VALID,100,VALID,-0.0849042,VALID,19.106,VALID,62,VALID,0.428961,
2003-12-25, 02:05:00,VALID,918.273,VALID,0,VALID,100,VALID,-0.0679233,VALID,19.0928,VALID,35,VALID,0.268532,
2003-12-25, 02:06:00,VALID,918.288,VALID,0,VALID,100,VALID,-0.101885,VALID,19.1062,VALID,35,VALID,0.317835,
2003-12-25, 02:07:00,VALID,918.295,VALID,0,VALID,100,VALID,-0.118866,VALID,19.1447,VALID,18,VALID,0.637649,
2003-12-25, 02:08:00,VALID,918.294,VALID,0,VALID,100,VALID,-0.0679233,VALID,19.1577,VALID,16,VALID,0.308036,
2003-12-25, 02:09:00,VALID,918.286,VALID,0,VALID,100,VALID,-0.0679233,VALID,19.1639,VALID,16,VALID,0.118331,
2003-12-25, 02:10:00,VALID,918.264,VALID,0,VALID,100,VALID,-0.0679233,VALID,19.1924,VALID,16,VALID,0.233507,
2003-12-25, 02:11:00,VALID,918.237,VALID,0,VALID,100,VALID,-0.0339617,VALID,19.219,VALID,18,VALID,0.600836,
2003-12-25, 02:12:00,VALID,918.215,VALID,0,VALID,100,VALID,-0.101885,VALID,19.2093,VALID,29,VALID,0.518503,
2003-12-25, 02:13:00,VALID,918.209,VALID,0,VALID,100,VALID,-0.101885,VALID,19.174,VALID,31,VALID,0.0163517,
2003-12-25, 02:14:00,VALID,918.195,VALID,0,VALID,100,VALID,-0.0849042,VALID,19.1671,VALID,31,VALID,0,
2003-12-25, 02:15:00,VALID,918.201,VALID,0,VALID,100,VALID,-0.0509425,VALID,19.1664,VALID,31,VALID,0,
2003-12-25, 02:16:00,VALID,918.187,VALID,0,VALID,100,VALID,-0.0339617,VALID,19.1408,VALID,49,VALID,0.339753,
2003-12-25, 02:17:00,VALID,918.174,VALID,0,VALID,100,VALID,-0.0339617,VALID,19.1016,VALID,66,VALID,0.295759,
2003-12-25, 02:18:00,VALID,918.163,VALID,0,VALID,100,VALID,-0.0339617,VALID,19.0764,VALID,66,VALID,0.298549,
2003-12-25, 02:19:00,VALID,918.152,VALID,0,VALID,100,VALID,-0.0509425,VALID,19.0538,VALID,66,VALID,0.341844,
2003-12-25, 02:20:00,VALID,918.138,VALID,0,VALID,100,VALID,-0.0849042,VALID,19.0566,VALID,66,VALID,0.270774,
2003-12-25, 02:21:00,VALID,918.156,VALID,0,VALID,100,VALID,-0.0679233,VALID,19.0541,VALID,66,VALID,0,
2003-12-25, 02:22:00,VALID,918.163,VALID,0,VALID,100,VALID,-0.0509425,VALID,19.0407,VALID,68,VALID,0.174023,
2003-12-25, 02:23:00,VALID,918.156,VALID,0,VALID,100,VALID,-0.0849042,VALID,19.0347,VALID,72,VALID,0.2375,
2003-12-25, 02:24:00,VALID,918.146,VALID,0,VALID,100,VALID,-0.0509425,VALID,19.028,VALID,91,VALID,0.317649,
2003-12-25, 02:25:00,VALID,918.131,VALID,0,VALID,100,VALID,-0.0509425,VALID,19.0183,VALID,95,VALID,0.243902,
2003-12-25, 02:26:00,VALID,918.121,VALID,0,VALID,100,VALID,-0.0679233,VALID,19.0186,VALID,95,VALID,0.121711,
2003-12-25, 02:27:00,VALID,918.132,VALID,0,VALID,100,VALID,-0.0849042,VALID,19.0119,VALID,89,VALID,0.255394,
2003-12-25, 02:28:00,VALID,918.151,VALID,0,VALID,100,VALID,-0.0849042,VALID,19.0347,VALID,82,VALID,0.03125,
2003-12-25, 02:29:00,VALID,918.159,VALID,0,VALID,100,VALID,-0.0509425,VALID,19.0474,VALID,82,VALID,0.0831473,
2003-12-25, 02:30:00,VALID,918.161,VALID,0,VALID,100,VALID,-0.0849042,VALID,19.0506,VALID,82,VALID,0,
2003-12-25, 02:31:00,VALID,918.146,VALID,0,VALID,100,VALID,-0.0679233,VALID,19.0797,VALID,80,VALID,0.114757,
2003-12-25, 02:32:00,VALID,918.105,VALID,0,VALID,100,VALID,-0.0849042,VALID,19.0896,VALID,49,VALID,0.237909,
2003-12-25, 02:33:00,VALID,918.09,VALID,0,VALID,100,VALID,-0.101885,VALID,19.0965,VALID,55,VALID,0.388765,
2003-12-25, 02:34:00,VALID,918.059,VALID,0,VALID,100,VALID,-0.101885,VALID,19.0638,VALID,71,VALID,0.220348,
2003-12-25, 02:35:00,VALID,918.057,VALID,0,VALID,100,VALID,-0.0849042,VALID,19.0412,VALID,107,VALID,0.45585,
2003-12-25, 02:36:00,VALID,918.049,VALID,0,VALID,100,VALID,-0.0849042,VALID,19.0183,VALID,108,VALID,0.417333,
2003-12-25, 02:37:00,VALID,918.032,VALID,0,VALID,100,VALID,-0.101885,VALID,19.0049,VALID,124,VALID,0.573103,
2003-12-25, 02:38:00,VALID,918.017,VALID,0,VALID,100,VALID,-0.101885,VALID,18.9994,VALID,146,VALID,0.537287,
2003-12-25, 02:39:00,VALID,918.011,VALID,0,VALID,100,VALID,-0.0849042,VALID,18.9922,VALID,144,VALID,0.284412,
2003-12-25, 02:40:00,VALID,917.999,VALID,0,VALID,100,VALID,-0.0509425,VALID,19.0156,VALID,144,VALID,0.0267078,
2003-12-25, 02:41:00,VALID,917.982,VALID,0,VALID,100,VALID,-0.0849042,VALID,19.0056,VALID,144,VALID,0.0276296,
2003-12-25, 02:42:00,VALID,917.981,VALID,0,VALID,100,VALID,-0.0679233,VALID,19.0151,VALID,81,VALID,0.374273,
2003-12-25, 02:43:00,VALID,917.955,VALID,0,VALID,100,VALID,-0.0849042,VALID,19.031,VALID,37,VALID,0.823864,
2003-12-25, 02:44:00,VALID,917.937,VALID,0,VALID,100,VALID,-0.101885,VALID,19.0119,VALID,58,VALID,0.864281,
2003-12-25, 02:45:00,VALID,917.95,VALID,0,VALID,100,VALID,-0.0849042,VALID,18.9736,VALID,74,VALID,0.389509,
2003-12-25, 02:46:00,VALID,917.954,VALID,0,VALID,100,VALID,-0.0679233,VALID,18.9478,VALID,74,VALID,0.0959821,
2003-12-25, 02:47:00,VALID,917.98,VALID,0,VALID,100,VALID,-0.101885,VALID,18.9448,VALID,74,VALID,0,
2003-12-25, 02:48:00,VALID,918,VALID,0,VALID,100,VALID,-0.0679233,VALID,18.9478,VALID,74,VALID,0,
2003-12-25, 02:49:00,VALID,918.017,VALID,0,VALID,100,VALID,-0.101885,VALID,18.9542,VALID,74,VALID,0,
2003-12-25, 02:50:00,VALID,918.035,VALID,0,VALID,100,VALID,-0.0509425,VALID,18.9895,VALID,74,VALID,0,
2003-12-25, 02:51:00,VALID,918.035,VALID,0,VALID,100,VALID,-0.0849042,VALID,18.9925,VALID,74,VALID,0.23331,
2003-12-25, 02:52:00,VALID,918.025,VALID,0,VALID,100,VALID,-0.0509425,VALID,18.9671,VALID,74,VALID,0.0602431,
2003-12-25, 02:53:00,VALID,918.018,VALID,0,VALID,100,VALID,-0.0169808,VALID,18.9625,VALID,74,VALID,0,
2003-12-25, 02:54:00,VALID,917.994,VALID,0,VALID,100,VALID,-0.0169808,VALID,18.9625,VALID,74,VALID,0,
2003-12-25, 02:55:00,VALID,917.981,VALID,0,VALID,100,VALID,-0.0339617,VALID,18.9622,VALID,74,VALID,0,
2003-12-25, 02:56:00,VALID,917.976,VALID,0,VALID,100,VALID,0,VALID,18.9687,VALID,74,VALID,0.124047,
2003-12-25, 02:57:00,VALID,917.976,VALID,0,VALID,100,VALID,-0.0339617,VALID,18.9324,VALID,74,VALID,0.0480903,
2003-12-25, 02:58:00,VALID,917.979,VALID,0,VALID,100,VALID,-0.0169808,VALID,18.9175,VALID,74,VALID,0,
2003-12-25, 02:59:00,VALID,917.984,VALID,0,VALID,100,VALID,-0.0169808,VALID,18.9073,VALID,74,VALID,0,
2003-12-25, 03:00:00,VALID,917.969,VALID,0,VALID,100,VALID,-0.0509425,VALID,18.914,VALID,74,VALID,0,
2003-12-25, 03:01:00,VALID,917.958,VALID,0,VALID,100,VALID,-0.0169808,VALID,18.9237,VALID,74,VALID,0,
2003-12-25, 03:02:00,VALID,917.965,VALID,0,VALID,100,VALID,-0.0339617,VALID,18.9466,VALID,66,VALID,0.102679,
2003-12-25, 03:03:00,VALID,917.965,VALID,0,VALID,100,VALID,-0.0679233,VALID,18.9625,VALID,45,VALID,0.326389,
2003-12-25, 03:04:00,VALID,917.95,VALID,0,VALID,100,VALID,-0.0849042,VALID,18.9657,VALID,36,VALID,0.49929,
2003-12-25, 03:05:00,VALID,917.968,VALID,0,VALID,100,VALID,0,VALID,18.9692,VALID,22,VALID,0.581055,
2003-12-25, 03:06:00,VALID,917.96,VALID,0,VALID,100,VALID,-0.0339617,VALID,18.9272,VALID,16,VALID,0.546512,
2003-12-25, 03:07:00,VALID,917.969,VALID,0,VALID,100,VALID,-0.0339617,VALID,18.953,VALID,42,VALID,0.549924,
2003-12-25, 03:08:00,VALID,917.97,VALID,0,VALID,100,VALID,0,VALID,18.9078,VALID,59,VALID,0.587573,
2003-12-25, 03:09:00,VALID,917.966,VALID,0,VALID,100,VALID,-0.0509425,VALID,18.8594,VALID,59,VALID,0.603338,
2003-12-25, 03:10:00,VALID,917.977,VALID,0,VALID,100,VALID,-0.0169808,VALID,18.8365,VALID,47,VALID,0.842607,
2003-12-25, 03:11:00,VALID,917.953,VALID,0,VALID,100,VALID,-0.0169808,VALID,18.7943,VALID,55,VALID,0.855655,
2003-12-25, 03:12:00,VALID,917.946,VALID,0,VALID,100,VALID,-0.0339617,VALID,18.772,VALID,38,VALID,0.840298,
2003-12-25, 03:13:00,VALID,917.943,VALID,0,VALID,100,VALID,-0.0339617,VALID,18.7595,VALID,81,VALID,0.750391,
2003-12-25, 03:14:00,VALID,917.938,VALID,0,VALID,100,VALID,-0.0339617,VALID,18.7009,VALID,110,VALID,0.746185,
2003-12-25, 03:15:00,VALID,917.935,VALID,0,VALID,100,VALID,0,VALID,18.6624,VALID,105,VALID,0.719866,
2003-12-25, 03:16:00,VALID,917.95,VALID,0,VALID,100,VALID,-0.0509425,VALID,18.6431,VALID,102,VALID,0.247222,
2003-12-25, 03:17:00,VALID,917.963,VALID,0,VALID,100,VALID,-0.0169808,VALID,18.6398,VALID,100,VALID,0.381925,
2003-12-25, 03:18:00,VALID,917.958,VALID,0,VALID,100,VALID,0,VALID,18.6301,VALID,87,VALID,0.603659,
2003-12-25, 03:19:00,VALID,917.945,VALID,0,VALID,100,VALID,0.0169808,VALID,18.6043,VALID,98,VALID,0.497713,
2003-12-25, 03:20:00,VALID,917.933,VALID,0,VALID,100,VALID,0,VALID,18.5787,VALID,101,VALID,0.458519,
2003-12-25, 03:21:00,VALID,917.923,VALID,0,VALID,100,VALID,-0.0339617,VALID,18.569,VALID,81,VALID,0.498641,
2003-12-25, 03:22:00,VALID,917.912,VALID,0,VALID,100,VALID,0,VALID,18.5561,VALID,78,VALID,0.852289,
2003-12-25, 03:23:00,VALID,917.904,VALID,0,VALID,100,VALID,0,VALID,18.5271,VALID,87,VALID,0.936047,
2003-12-25, 03:24:00,VALID,917.903,VALID,0,VALID,100,VALID,-0.0509425,VALID,18.501,VALID,68,VALID,0.855291,
2003-12-25, 03:25:00,VALID,917.902,VALID,0,VALID,100,VALID,-0.0339617,VALID,18.5049,VALID,68,VALID,0.824219,
2003-12-25, 03:26:00,VALID,917.894,VALID,0,VALID,100,VALID,-0.0169808,VALID,18.4752,VALID,61,VALID,0.789608,
2003-12-25, 03:27:00,VALID,917.883,VALID,0,VALID,100,VALID,-0.0509425,VALID,18.4528,VALID,66,VALID,0.68936,
2003-12-25, 03:28:00,VALID,917.891,VALID,0,VALID,100,VALID,-0.0509425,VALID,18.4367,VALID,69,VALID,0.651563,
2003-12-25, 03:29:00,VALID,917.89,VALID,0,VALID,100,VALID,-0.0339617,VALID,18.4367,VALID,92,VALID,0.321615,
2003-12-25, 03:30:00,VALID,917.894,VALID,0,VALID,100,VALID,-0.0339617,VALID,18.4429,VALID,96,VALID,0.0182927,
2003-12-25, 03:31:00,VALID,917.906,VALID,0,VALID,100,VALID,-0.0169808,VALID,18.4332,VALID,96,VALID,0.0480469,
2003-12-25, 03:32:00,VALID,917.9,VALID,0,VALID,100,VALID,-0.0339617,VALID,18.4334,VALID,96,VALID,0.0417878,
2003-12-25, 03:33:00,VALID,917.891,VALID,0,VALID,100,VALID,-0.0169808,VALID,18.4106,VALID,96,VALID,0.0931784,
2003-12-25, 03:34:00,VALID,917.88,VALID,0,VALID,100,VALID,0,VALID,18.4106,VALID,96,VALID,0.139881,
2003-12-25, 03:35:00,VALID,917.85,VALID,0,VALID,100,VALID,-0.0169808,VALID,18.4011,VALID,108,VALID,0.349132,
2003-12-25, 03:36:00,VALID,917.831,VALID,0,VALID,100,VALID,0,VALID,18.3619,VALID,106,VALID,0.125363,
2003-12-25, 03:37:00,VALID,917.823,VALID,0,VALID,100,VALID,-0.0169808,VALID,18.3589,VALID,104,VALID,0.337054,
2003-12-25, 03:38:00,VALID,917.816,VALID,0,VALID,100,VALID,-0.0169808,VALID,18.3493,VALID,131,VALID,0.526786,
2003-12-25, 03:39:00,VALID,917.807,VALID,0,VALID,100,VALID,-0.0339617,VALID,18.3333,VALID,161,VALID,0.419876,
2003-12-25, 03:40:00,VALID,917.828,VALID,0,VALID,100,VALID,-0.0169808,VALID,18.3333,VALID,160,VALID,0.146532,
2003-12-25, 03:41:00,VALID,917.823,VALID,0,VALID,100,VALID,-0.0339617,VALID,18.3271,VALID,144,VALID,0.0900391,
2003-12-25, 03:42:00,VALID,917.825,VALID,0,VALID,100,VALID,0,VALID,18.3038,VALID,144,VALID,0,